Погода в Шадринске

Погода в Шадринске : погода сейчас, прогноз погоды и архив. Всё, что Вы хотите узнать о погоде в Шадринске!

Хотите узнать прогноз погоды в Шадринске? Тогда Вам сюда: Погода в Шадринске

Поиск расширенной информации на нашем сайте:

Другие новости

Новости СМИ2

Главная страница сайта

Новости сайта

03.07.2017

Напоминаем, что на нашем специализированном сайте Метеоцентр.Азия вы можете получить высокодетализированные автоматические прогнозы погоды по пунктам России, СНГ и мира в авиационном формате (включающие направление и скорость ветра, видимость, явления погоды, количество и форму облачности, нижнюю и верхнюю границу облачности).


Погода в Шадринске - сегодня

Время (UTC), дата Ветер
(°,м/с) 
Видим.   Явления Облачность Т
(°С)
Тd
(°С)
f(%) Тe
(°С)
Pmin
(гПа)
dP
(гПа)
Po
(мм)
O2
(г/м3)
Тmin Tmax R s Состояние
почвы
21 19.07.17 310 (СЗ) 10 км  {гроза}  6/4 600 м кучево-дожд., верхняя 
[Cb cap|Ci sp]
+16.7 +14 84 +25  1013  -0.5  752  283           
00 20.07.17 тихо ()   4000 м  дымка{гроза}  8/6 600 м кучево-дожд., верхняя 
[Cb cap|Ci sp]
+13.9 +12.6 92 +19  1013.2  0.1  752  286           
03 20.07.17 тихо ()   10 км    8/6 600 м кучево-дожд., верхняя 
[Cb cap|Ci sp]
+20.3 +15.3 73 +29  1013.1  0.1  752  279  +13.9        сухая 
06 20.07.17 190 (Ю) 10 км    9/8 600 м кучево-дожд., верхняя 
[Cb cap|Ci sp]
+24.6 +15.6 57 +34  1012.6  -0.3  752  275           
09 20.07.17 030 (СВ) 10 км  гроза без осадков  9/9 600 м кучево-дожд. 
[Cb calv]
+26.2 +14.7 49 +34  1012.2  -0.4  752  273           
12 20.07.17 070 (В) 10 км  в посл. час ливневой дождь{гроза}  8/8 600 м кучево-дожд. 
[Cb cap]
+24.7 +16.5 60 +36  1011.8  -0.4  751  274           
18 20.07.17 060 (СВ) 10 км  дымка{гроза}  6/3 600 м кучево-дожд., верхняя 
[Cb cap|Ci sp]
+17.6 +15.3 86 +28  1013.4  0.9  752  281           
21 20.07.17 тихо ()   2000 м  дымка  4/0 верхняя 
[Ci sp]
+14.3 +13 92 +20  1013.2  -0.3  752  285           
00 21.07.17 тихо ()   0500 м  туман  ?/?  
+13.5 +12.6 94 +18  1014  0.7  752  286           
03 21.07.17 230 (ЮЗ) 4000 м  дымка{туман}  ясно 
+17 +16 94 +28  1014.6  0.8  753  282  +13.4        сухая 
06 21.07.17 070 (В) 10 км  {туман}  3/3 600 м 
[Cu med, cong]
+24.7 +19.5 73 +42  1014.5  0.1  753  274           
09 21.07.17 060 (СВ) 10 км    8/8 600 м кучево-дожд. 
[Cb cap]
+24.9 +12.8 47 +30  1014.3  -0.2  753  276           
12 21.07.17 310 (СЗ) 10 км    6/6 600 м кучево-дожд. 
[Cb cap]
+27.7 +11.4 36 +31  1013.4  -0.9  752  273           
15 21.07.17 090 (В) 1{13}  10 км    4/3 600 м кучево-дожд., верхняя 
[Cb cap|Ci sp]
+25.7 +12.4 44 +30  1013.5  0.1  752  275    +28       
18 21.07.17 080 (В) 10 км    3/3 600 м 
[Sc]
+18.6 +13.8 74 +27  1013.8  752  281           
21 21.07.17 080 (В) 10 км    4/0 верхняя 
[Ci sp]
+14.8 +13.1 90 +21  1013.3  -0.6  752  285           
00 22.07.17 090 (В) 10 км    8/6 600 м верхняя 
[Sc|Ci sp]
+14.1 +12.9 92 +20  1013.2  0.1  752  286           
03 22.07.17 070 (В) 10 км    8/6 600 м кучево-дожд., верхняя 
[Cb cap|Ci sp]
+19.4 +15.3 77 +30  1012.9  0.1  752  280  +14.1        сухая 
06 22.07.17 100 (В) 10 км    8/3 600 м верхняя 
[Cu med, cong|Ci sp]
+25.7 +15.1 52 +35  1011.8  -0.9  751  274           
12 22.07.17 190 (Ю) 10 км  {гроза, ливн. осадки}  9/8 600 м кучево-дожд., верхняя 
[Cb cap|Ci sp]
+25.6 +13.8 48 +32  1010  -1.1  750  274           
18 22.07.17 060 (СВ) 10 км  {ливн. осадки}  8/6 600 м кучево-дожд., средняя, верхняя 
[Cb cap|Ac trans|Ci sp]
+18.7 +17 90 +32  1008.8  -0.4  749  279           
21 22.07.17 230 (ЮЗ) 10 км  зарница{ливн. осадки}  8/8 600 м кучево-дожд. 
[Cb cap]
+18.1 +16.4 90 +31  1008.4  -0.4  749  279           
00 23.07.17 260 (З) 4000 м  дымка{гроза, ливн. осадки}  10/4 600 м кучево-дожд., верхняя 
[Cb cap|Ci sp]
+16 +14.7 92 +25  1008.2  -0.3  748  282           
03 23.07.17 280 (З) 0500 м  туман  ?/?  
+16.3 +15.3 94 +26  1008.6  0.5  749  281  +15.7    0.5    влажная 
06 23.07.17 290 (З) 10 км  {туман}  3/3 600 м кучево-дожд. 
[Cb cap]
+21.6 +13.9 62 +28  1007.9  -0.5  748  277           
Время (UTC), дата Ветер
(°,м/с) 
Видим.   Явления Облачность Т
(°С)
Тd
(°С)
f(%) Тe
(°С)
Pmin
(гПа)
dP
(гПа)
Po
(мм)
O2
(г/м3)
Тmin Tmax R s Состояние
почвы

Для получения пояснительной информации подведите курсор к названию столбца.

ПОГОДА в Шадринске - архив

Всё, что Вы хотите узнать о погоде в Шадринске - удобно и подробно!

Выберите нужную дату (начиная с 1 января 2015* года) и нажмите кнопку "Найти".
Будут отображены архивные сводки погоды по пункту Шадринск, начиная с указанной даты.


Отображать данные в формате CSV (для использования в таблицах Excel)


Внимание! Наш архив погоды предназначен исключительно для личного некоммерческого использования в познавательных целях. Если Вам необходимы официальные справки о состоянии погоды (для производственных, юридических, коммерческих и т.п. целей), обращайтесь в органы Росгидромета.

*Примечание: данная дата относится к архиву по метеостанциям СССР (Россия, СНГ, Балтия).
Архив по метеостанциям Зарубежной Европы и Азии (кроме Китая) хранится 10 дней, по другим регионам земного шара (Китай, Африка, Америка, Австралия, Океания) - 1 день.

Шадринск - район местоположения метеостанции


Название, широта, долгота, высота метеостанции:
Шадринск 56.1°ш. 63.6°д. 89 м над ур. моря [Российская Федерация]

Дополнительная информация

В oтличие oт бoльшинства пoгoдных сайтoв мы публикуем пoдрoбную метеoинфoрмацию в детальнoм прoфессиoнальнoм фoрмате.

Характеристики температуры и влажнoсти вoздуха измеряются на высoте 2 м в тени вдали oт зданий и деревьев.
Скoрoсть ветра измеряется на высoте 10 м (на урoвне рoста челoвека скoрoсть ветра ниже в 1.5-2 раза). Если метеoстанция нахoдится в гoрoде или в лесу, тo скoрoсть ветра занижена на 2-4 м/с пo сравнению с oткрытым местoм. Скoрoсть ветра над акватoриями крупных рек и oзёр, а также на вершинах хoлмoв на 2-5 м/с выше, чем в oбычных услoвиях.
Атмoсфернoе давление в разных тoчках местнoсти мoжет значительнo oтличаться oт давления на метеoстанции, в зависимoсти oт услoвий рельефа (при пoдъёме на 10 м давление пoнижается примернo на 1 мм рт.ст.).